Location: Nakusp
(50.2330°N, 117.8000°W)
Time: 17:46:04
(UTC-07:00)

Daily predictions for brighter satellites

Satellite Brightness Start Highest point End
(mag) Time Altitude Azimuth Time Altitude Azimuth Time Altitude Azimuth
SL-16 R/B 3.7 18:14:53 10° N 18:18:46 18° NE 18:22:38 10° ENE
Cosmos 1452 Rocket 3.6 18:13:36 10° NNW 18:18:54 85° WSW 18:24:10 10° SSE
NOSS 0 Rocket 4.4 18:13:42 10° NNW 18:19:32 41° NE 18:25:20 10° ESE
Gbstr 26 Del rocket 3.8 18:16:42 10° WNW 18:21:16 65° SSW 18:26:57 10° SE
SMAP 3.3 18:16:44 10° S 18:21:23 76° WSW 18:26:05 10° NNW
SL-08 R/B 4.4 18:16:41 10° S 18:22:46 71° E 18:28:52 10° NNE
Sich 1 4.2 18:20:48 10° NNE 18:24:17 23° ENE 18:27:46 10° ESE
BREEZE-M DEB (TANK) 3.8 18:21:02 10° W 18:24:29 62° SSW 18:36:06 10° ESE
Iridium 4 Rocket 4.4 18:20:05 10° SE 18:25:08 33° E 18:30:21 10° NNE
Cosmos 1400 Rocket 3.3 18:21:21 10° NNW 18:25:22 67° W 18:29:18 10° S
CZ-2C R/B 4.5 18:21:51 10° SSW 18:25:56 32° W 18:30:09 10° NNW
SPOT 3 Rocket 3.7 18:21:14 10° SE 18:26:14 51° ENE 18:31:19 10° N
Aureole 1 Rocket 3.7 18:21:14 10° SSW 18:26:58 69° WNW 18:31:16 10° NNE
Cosmos 2360 Rocket 3.0 18:21:26 10° NW 18:26:59 58° WSW 18:32:31 10° S
ATLAS 5 CENTAUR R/B 3.8 18:26:24 10° NW 18:30:20 21° N 18:34:34 10° NE
COSMO-SKYMED 1 3.2 18:26:36 10° NNE 18:30:36 34° E 18:34:34 10° SSE
USA 234 3.8 18:24:21 10° ENE 18:30:38 50° N 18:36:56 10° WNW
Cosmos 1980 4.3 18:26:00 10° NNW 18:31:13 36° NE 18:36:23 10° ESE
Cosmos 2151 3.1 18:27:36 10° NNW 18:31:55 82° W 18:36:09 10° S
Cosmos 2058 3.1 18:28:40 10° NNW 18:32:53 81° W 18:37:01 10° S
FREGAT/IRIS 4.3 18:33:17 11° E 18:34:59 15° ENE 18:36:51 10° NNE
Resurs 01 Rocket 3.5 18:35:06 11° ENE 18:36:20 12° NE 18:37:52 10° NNE
Cosmos 2082 Rocket 4.5 18:33:51 10° WNW 18:37:40 18° NNW 18:41:31 10° N
Cosmos 1805 Rocket 3.9 18:36:34 10° N 18:40:47 43° ENE 18:45:00 10° SSE
Cosmos 2098 Rocket 4.2 18:36:27 10° SSE 18:41:06 38° E 18:46:51 10° NNE
COSMOS 2428 2.7 18:35:44 10° NNW 18:41:27 90° ENE 18:47:09 10° SSE
CZ-4C R/B 2.9 18:37:52 10° S 18:42:32 32° ESE 18:47:46 10° NE
Cosmos 2333 Rocket 2.3 18:38:34 10° NNW 18:44:15 57° NE 18:49:55 10° SE
FENGYUN 3A 3.8 18:40:27 10° SE 18:45:41 53° ENE 18:50:58 10° N
Cosmos 44 Rocket 3.7 18:41:57 10° S 18:46:20 40° ESE 18:50:40 10° NE
GRACE-2 3.6 18:45:59 10° SSE 18:48:31 61° E 18:51:04 10° N
Cosmos 2366 rocket 4.2 18:42:40 10° SSW 18:48:52 75° W 18:55:03 10° N
ERS-2 3.3 18:45:47 10° S 18:49:22 48° W 18:52:59 10° NNW
Cosmos 1833 4.3 18:43:44 10° SSW 18:49:25 86° WNW 18:55:06 10° NNE
Cosmos 2219 3.7 18:44:32 10° S 18:49:49 39° ESE 18:55:06 10° NE
Cosmos 1666 Rocket 4.1 18:46:08 10° N 18:50:11 36° ENE 18:54:10 10° SE
Cosmos 158 Rocket 4.0 18:47:20 10° S 18:52:18 57° ESE 18:57:28 10° NNE
MOS 1 4.4 18:47:37 10° SSE 18:53:19 85° WSW 18:59:04 10° NNW
GRACE-1 3.5 18:51:42 10° S 18:54:17 80° E 18:56:52 10° N
Cosmos 1633 Rocket 3.7 18:50:42 10° N 18:54:46 34° ENE 18:58:48 10° SE
EO 1 Del DPAF 3.1 18:52:17 10° NNE 18:56:09 72° ESE 18:59:59 10° S
Cosmos 1726 2.7 18:52:55 10° SSE 18:56:17 35° E 18:59:40 10° NNE
YAOGAN 1 3.3 18:52:12 10° S 18:56:28 57° W 19:00:46 10° NNW
Cosmos 2297 Rocket 3.7 18:53:37 10° SE 18:56:00 15° ESE 18:56:00 15° ESE
APEX 2.7 18:55:15 10° S 18:58:04 44° ESE 18:59:37 21° NE
Cosmos 1048 Rocket 4.1 18:53:34 10° S 18:58:31 53° ESE 19:03:30 10° NNE
CZ-4 R/B 3.1 18:55:25 10° SSW 18:59:19 38° W 19:03:11 10° NNW
Landsat 4 4.2 18:55:53 10° N 18:59:34 61° WNW 19:03:14 10° SSW
CZ-2C R/B 4.2 18:58:28 10° N 19:02:58 64° WNW 19:07:22 10° SSW
Envisat 4.2 19:05:02 19° E 19:06:28 22° ENE 19:10:19 10° N
Meteor 1-28 Rocket 4.1 19:05:53 10° N 19:09:35 51° WNW 19:13:13 10° SSW
Cosmos 2219 Rocket 2.2 19:08:01 10° NNW 19:13:39 82° WSW 19:19:16 10° SSE
Cosmos 1315 Rocket 4.4 19:10:08 10° NNW 19:13:58 39° W 19:17:48 10° SSW
Cosmos 2084 3.5 19:10:13 10° NW 19:13:59 66° SW 19:17:29 12° SSE
NOAA 12 4.2 19:09:36 10° SSE 19:14:56 86° WSW 19:20:19 10° NNW
Cosmos 2221 2.5 19:12:51 10° S 19:17:12 85° WNW 19:21:37 10° N
SKYMED 2 3.6 19:14:28 10° NNE 19:18:49 82° WNW 19:23:10 10° SSW
FengYun 1-2 T 4.2 19:14:56 10° SSE 19:20:20 62° ENE 19:25:46 10° N
ALOS 2.4 19:16:32 10° S 19:21:13 79° WSW 19:25:55 10° NNW
HJ-1C 3.9 19:20:51 37° E 19:21:13 38° ENE 19:24:27 10° N
Thor Agena Rocket 3.8 19:16:42 10° NNE 19:21:34 43° E 19:26:22 10° S
Cosmos 1934 Rocket 4.1 19:16:19 10° S 19:22:30 58° E 19:28:44 10° NNE
Cosmos 1821 Rocket 3.9 19:18:18 10° S 19:24:28 75° E 19:30:46 10° NNE
Cosmos 1331 Rocket 3.9 19:22:27 10° NNW 19:27:43 79° ENE 19:32:54 10° SSE
Cosmos 2239 Rocket 4.4 19:23:39 10° S 19:29:47 81° E 19:35:59 10° NNE
SJ-6B 2.5 19:37:15 37° SE 19:38:33 67° ENE 19:42:16 10° N
Lacrosse 5 rocket 2.4 19:35:23 10° WNW 19:39:23 33° N 19:40:29 29° NE
Aureole 2 Rocket 4.3 19:35:56 10° NW 19:39:34 37° WSW 19:43:19 10° S
BREEZE-M DEB (TANK) 3.4 19:34:40 10° W 19:44:23 57° SSW 19:45:54 37° SE
H-2A R/B 2.8 19:42:31 11° S 19:46:15 80° WSW 19:50:13 10° NNW
BREEZE-M DEB (TANK) 3.3 19:45:41 10° SW 19:46:34 22° SSW 19:46:34 22° SSW
Abrixas rocket 2.9 19:45:26 10° W 19:48:35 43° SSW 19:48:35 43° SSW
In-Cosmos 22 Rocket 4.3 19:42:49 10° NNW 19:48:36 85° WSW 19:54:25 10° S
Cosmos 1470 Rocket 3.5 19:44:16 10° N 19:48:44 61° ENE 19:49:38 49° SE
Cosmos 44 3.3 19:45:46 10° SW 19:50:05 66° NW 19:52:16 28° NNE
Cosmos 2123 Rocket 4.0 19:44:06 10° N 19:50:23 82° W 19:56:39 10° S
Cosmos 2237 Rocket 2.3 19:45:23 10° NNW 19:51:07 78° WSW 19:55:32 17° SSE
SL-8 R/B 3.7 19:48:55 10° W 19:53:44 72° S 19:54:42 55° ESE
Cosmos 1269 Rocket 4.3 19:48:49 10° SSW 19:54:05 67° WNW 19:59:23 10° NNE
Cosmos 1302 Rocket 3.9 19:51:54 10° NNW 19:57:09 81° ENE 19:59:12 38° SSE
Cosmos 1605 Rocket 3.8 19:52:54 10° S 19:58:58 72° E 20:05:03 10° NNE
MOS 1-B Rocket 3.9 19:56:56 24° SSE 20:00:37 75° ENE 20:07:06 10° NNW
Cosmos 1300 3.0 19:56:53 10° SSW 20:00:41 65° WNW 20:04:30 10° N
Sich 1 4.2 19:58:01 10° NNW 20:02:12 44° W 20:06:23 10° SSW
BREEZE M DEB (TANK) 3.2 19:58:57 10° W 20:02:08 30° SW 20:02:08 30° SW
Cosmos 1892 3.6 19:58:32 10° N 20:01:03 38° N 20:01:03 38° N
Cosmos 2227 Rocket 2.2 19:57:07 10° S 20:02:36 53° ESE 20:03:07 51° E
SL-16 R/B 2.2 19:58:22 10° NNW 20:04:03 65° ENE 20:05:09 53° ESE
Cosmos 1153 Rocket 4.5 19:58:35 10° SSE 20:04:34 56° E 20:10:39 10° NNE
FREGAT/IRIS 4.3 20:05:35 29° SW 20:06:14 32° W 20:08:59 10° NNW
COSMO-SKYMED 1 4.5 20:02:54 10° N 20:06:42 30° WNW 20:10:30 10° SW
Spot 2 Rocket 3.4 20:09:46 62° ENE 20:09:50 63° ENE 20:14:52 10° N
Cosmos 494 Rocket 3.8 20:06:33 10° SSW 20:11:39 79° ESE 20:13:13 46° NNE
Resurs 01 Rocket 1.8 20:12:41 60° NNE 20:12:41 60° NNE 20:16:27 10° N
USA 234 3.5 20:11:06 42° ENE 20:13:08 59° NNE 20:19:34 10° WNW
CZ-2D R/B 3.8 20:14:21 54° NNW 20:14:21 54° NNW 20:17:26 10° NNW
Resurs 1-3 4.0 20:15:52 54° N 20:15:52 54° N 20:19:21 10° N
ATLAS 5 CENTAUR R/B 3.3 20:11:53 10° NW 20:16:43 29° NNE 20:17:10 29° NNE
Meteor 2-17 Rocket 4.3 20:16:09 10° S 20:22:10 67° E 20:28:13 10° NNE
Meteor 2-3 Rocket 3.7 20:17:04 10° NNW 20:22:52 82° W 20:25:11 38° S
USA 32 4.2 20:17:54 10° N 20:23:09 73° W 20:25:56 28° S
Cosmos 44 Rocket 4.3 20:23:25 10° WSW 20:27:51 40° NW 20:29:24 31° N
Cosmos 2333 Rocket 4.0 20:23:20 10° NW 20:28:13 29° WSW 20:33:05 10° SSW
CZ-4C R/B 2.7 20:25:15 10° WSW 20:30:39 61° NW 20:33:20 33° NNE
H-2A R/B 4.2 20:35:14 15° NNE 20:35:14 15° NNE 20:36:34 10° N
Cosmos 2219 4.3 20:28:28 10° WSW 20:33:56 44° NW 20:39:26 10° NNE
Cosmos 1933 Rocket 4.2 20:31:43 10° NNW 20:35:41 53° WNW 20:35:41 53° WNW
Cosmos 2297 Rocket 2.8 20:34:07 10° SSW 20:37:55 45° SSW 20:37:55 45° SSW
Envisat 3.2 20:45:15 66° W 20:45:15 66° W 20:50:08 10° NNW
Cosmos 2251 Rocket 4.2 20:42:56 10° SSW 20:46:42 47° SW 20:46:42 47° SW
Cosmos 2082 4.5 20:44:39 10° SSW 20:48:19 42° SSW 20:48:19 42° SSW
Lacrosse 5 rocket 4.0 21:14:57 10° NW 21:16:09 18° NW 21:16:09 18° NW
Cosmos 2227 Rocket 3.9 21:41:47 10° WSW 21:45:03 27° W 21:45:03 27° W
SL-16 R/B 4.1 21:43:11 10° NW 21:47:03 24° W 21:47:03 24° W
USA 234 4.2 21:58:27 43° WNW 21:58:27 43° WNW 22:02:40 10° WNW
ATLAS 5 CENTAUR R/B 4.1 21:56:26 10° NW 21:58:43 26° NW 21:58:43 26° NW
CZ-4C R/B 4.3 22:15:26 10° WNW 22:18:32 24° NW 22:18:32 24° NW
